ORBCOMM FM107 [+] (40087 NORAD) Tracking and Keplerian Element Data

This shows tracking and keplerian element data for the satellite.

Feedback or suggestion? Click here.




ElementValue
Catalog40087
NameORBCOMM FM107 [+]
Epoch Orbit21317
Epoch Day198.91783064
Epoch Year2018
RAAN16.6888
Inclination47.0072
Eccentricity0.0002423
Argument of Perigee282.6156
Mean Anonmoly77.4457
Mean Motion14.54716392
Decay Rate-6.2E-07
L11 40087U 14040B 18198.91783064 -.00000062 00000-0 23937-4 0 9990
L22 40087 47.0072 16.6888 0002423 282.6156 77.4457 14.54716392213179

Live tracking and technical data element details for ORBCOMM FM107 [+] (NORAD 40087). ORBCOMM FM107 [+] can be tracked NOW for your location showing map with azimuth and elevation plus other details from your city location.

Track the satellite on the map from your city or location and see movement details for azimuth, elevation, latitude, longitude, range, height, and movement on the map or in text.







IsCatalogInMostPopularTable: catalog: 40087, numindb: 60
Update: records affected: 1



GetName: 40087 ORBCOMM FM107 [+]

Hit Count: updated at: Fri, 20 Jul 2018 20:37:45 GMT